Time,TemperatureF,DewpointF,PressureIn,WindDirection,WindDirectionDegrees,WindSpeedMPH,WindSpeedGustMPH,Humidity,HourlyPrecipIn,Conditions,Clouds,dailyrainin,SoftwareType,DateUTC
2013-04-03 00:03:00,37.6,35.8,30.18,West,260,1.0,1.0,93,0.00,,,0.00,Wunderground v.1.15,2013-04-03 06:03:00,
2013-04-03 00:09:00,37.4,35.6,30.18,West,260,1.0,1.0,93,0.00,,,0.00,Wunderground v.1.15,2013-04-03 06:09:00,
2013-04-03 00:14:00,37.3,35.5,30.18,West,260,0.0,1.0,93,0.00,,,0.00,Wunderground v.1.15,2013-04-03 06:14:00,
2013-04-03 00:20:00,36.9,35.1,30.18,West,260,0.0,0.0,93,0.00,,,0.00,Wunderground v.1.15,2013-04-03 06:20:00,
2013-04-03 00:25:00,36.7,34.9,30.18,West,260,0.0,0.0,93,0.00,,,0.00,Wunderground v.1.15,2013-04-03 06:25:00,
2013-04-03 00:30:00,36.3,34.5,30.18,West,260,0.0,0.0,93,0.00,,,0.00,Wunderground v.1.15,2013-04-03 06:30:00,
2013-04-03 00:35:00,36.3,34.5,30.18,West,260,0.0,1.0,93,0.00,,,0.00,Wunderground v.1.15,2013-04-03 06:35:00,
2013-04-03 00:41:00,36.1,34.5,30.18,West,260,0.0,0.0,94,0.00,,,0.00,Wunderground v.1.15,2013-04-03 06:41:00,
2013-04-03 00:47:00,36.1,34.5,30.18,West,259,0.0,0.0,94,0.00,,,0.00,Wunderground v.1.15,2013-04-03 06:47:00,
2013-04-03 00:52:00,36.2,34.6,30.18,West,260,0.0,0.0,94,0.00,,,0.00,Wunderground v.1.15,2013-04-03 06:52:00,
2013-04-03 00:58:00,36.5,34.9,30.18,West,260,0.0,0.0,94,0.00,,,0.00,Wunderground v.1.15,2013-04-03 06:58:00,
2013-04-03 01:04:00,36.7,35.1,30.18,West,260,0.0,0.0,94,0.00,,,0.00,Wunderground v.1.15,2013-04-03 07:04:00,
2013-04-03 01:09:00,36.8,35.5,30.18,West,260,0.0,0.0,95,0.00,,,0.00,Wunderground v.1.15,2013-04-03 07:09:00,
2013-04-03 01:15:00,36.9,35.6,30.19,West,260,0.0,0.0,95,0.00,,,0.00,Wunderground v.1.15,2013-04-03 07:15:00,
2013-04-03 01:20:00,37.0,35.7,30.19,East,101,1.0,1.0,95,0.00,,,0.00,Wunderground v.1.15,2013-04-03 07:20:00,
2013-04-03 01:26:00,37.1,35.8,30.19,East,89,1.0,2.0,95,0.00,,,0.00,Wunderground v.1.15,2013-04-03 07:26:00,
2013-04-03 01:32:00,37.2,35.9,30.18,East,89,1.0,1.0,95,0.00,,,0.00,Wunderground v.1.15,2013-04-03 07:32:00,
2013-04-03 01:37:00,37.2,35.9,30.19,ENE,77,2.0,2.0,95,0.00,,,0.00,Wunderground v.1.15,2013-04-03 07:37:00,
2013-04-03 01:43:00,37.2,35.9,30.18,ENE,68,3.0,3.0,95,0.00,,,0.00,Wunderground v.1.15,2013-04-03 07:43:00,
2013-04-03 01:48:00,37.2,35.9,30.18,East,84,3.0,3.0,95,0.00,,,0.00,Wunderground v.1.15,2013-04-03 07:48:00,
2013-04-03 01:53:00,37.2,35.9,30.18,East,94,3.0,3.0,95,0.00,,,0.00,Wunderground v.1.15,2013-04-03 07:53:00,
2013-04-03 01:59:00,37.1,35.8,30.18,ESE,109,1.0,3.0,95,0.00,,,0.00,Wunderground v.1.15,2013-04-03 07:59:00,
2013-04-03 02:04:00,37.0,35.7,30.18,East,100,2.0,3.0,95,0.00,,,0.00,Wunderground v.1.15,2013-04-03 08:04:00,
2013-04-03 02:09:00,36.9,35.6,30.18,East,97,0.0,3.0,95,0.00,,,0.00,Wunderground v.1.15,2013-04-03 08:09:00,
2013-04-03 02:14:00,36.8,35.5,30.18,East,84,3.0,3.0,95,0.00,,,0.00,Wunderground v.1.15,2013-04-03 08:14:00,
2013-04-03 02:19:00,36.8,35.5,30.18,ESE,107,2.0,3.0,95,0.00,,,0.00,Wunderground v.1.15,2013-04-03 08:19:00,
2013-04-03 02:24:00,36.7,35.4,30.18,East,97,0.0,4.0,95,0.00,,,0.00,Wunderground v.1.15,2013-04-03 08:24:00,
2013-04-03 02:29:00,36.7,35.4,30.18,ESE,106,2.0,4.0,95,0.00,,,0.00,Wunderground v.1.15,2013-04-03 08:29:00,
2013-04-03 02:34:00,36.6,35.3,30.18,ESE,103,0.0,2.0,95,0.00,,,0.00,Wunderground v.1.15,2013-04-03 08:34:00,
2013-04-03 02:39:00,36.7,35.4,30.18,ESE,103,1.0,2.0,95,0.00,,,0.00,Wunderground v.1.15,2013-04-03 08:39:00,
2013-04-03 02:44:00,36.5,35.2,30.18,SE,131,1.0,3.0,95,0.00,,,0.00,Wunderground v.1.15,2013-04-03 08:44:00,
2013-04-03 02:49:00,36.5,35.2,30.18,East,86,2.0,3.0,95,0.00,,,0.00,Wunderground v.1.15,2013-04-03 08:49:00,
2013-04-03 02:54:00,36.4,35.4,30.18,SE,127,1.0,2.0,96,0.00,,,0.00,Wunderground v.1.15,2013-04-03 08:54:00,
2013-04-03 02:59:00,36.4,35.4,30.19,ESE,113,1.0,3.0,96,0.00,,,0.00,Wunderground v.1.15,2013-04-03 08:59:00,
2013-04-03 03:04:00,36.2,34.9,30.19,SE,131,1.0,3.0,95,0.00,,,0.00,Wunderground v.1.15,2013-04-03 09:04:00,
2013-04-03 03:09:00,36.2,35.2,30.19,SE,124,2.0,3.0,96,0.00,,,0.00,Wunderground v.1.15,2013-04-03 09:09:00,
2013-04-03 03:14:00,36.1,35.1,30.19,East,95,3.0,3.0,96,0.00,,,0.00,Wunderground v.1.15,2013-04-03 09:14:00,
2013-04-03 03:19:00,36.1,35.1,30.19,SE,136,1.0,4.0,96,0.00,,,0.00,Wunderground v.1.15,2013-04-03 09:19:00,
2013-04-03 03:24:00,36.0,35.0,30.19,East,95,1.0,4.0,96,0.00,,,0.00,Wunderground v.1.15,2013-04-03 09:24:00,
2013-04-03 03:29:00,36.0,35.0,30.19,ESE,104,0.0,4.0,96,0.00,,,0.00,Wunderground v.1.15,2013-04-03 09:29:00,
2013-04-03 03:35:00,36.0,35.0,30.18,SE,131,1.0,2.0,96,0.00,,,0.00,Wunderground v.1.15,2013-04-03 09:35:00,
2013-04-03 03:40:00,35.9,34.9,30.19,ESE,117,0.0,3.0,96,0.00,,,0.00,Wunderground v.1.15,2013-04-03 09:40:00,
2013-04-03 03:45:00,35.9,34.9,30.19,ESE,110,4.0,4.0,96,0.00,,,0.00,Wunderground v.1.15,2013-04-03 09:45:00,
2013-04-03 03:50:00,35.8,34.8,30.18,SE,125,2.0,4.0,96,0.00,,,0.00,Wunderground v.1.15,2013-04-03 09:50:00,
2013-04-03 03:55:00,35.8,34.8,30.19,SE,129,1.0,2.0,96,0.00,,,0.00,Wunderground v.1.15,2013-04-03 09:55:00,
2013-04-03 04:00:00,35.8,34.8,30.19,East,101,1.0,1.0,96,0.00,,,0.00,Wunderground v.1.15,2013-04-03 10:00:00,
2013-04-03 04:05:00,35.7,34.7,30.19,ESE,110,1.0,2.0,96,0.00,,,0.00,Wunderground v.1.15,2013-04-03 10:05:00,
2013-04-03 04:10:00,35.7,34.7,30.19,ESE,110,1.0,1.0,96,0.00,,,0.00,Wunderground v.1.15,2013-04-03 10:10:00,
2013-04-03 04:15:00,35.8,34.8,30.19,ESE,110,0.0,1.0,96,0.00,,,0.00,Wunderground v.1.15,2013-04-03 10:15:00,
2013-04-03 04:20:00,35.8,34.8,30.18,ESE,110,1.0,1.0,96,0.00,,,0.00,Wunderground v.1.15,2013-04-03 10:20:00,
2013-04-03 04:25:00,35.8,34.8,30.19,ESE,110,0.0,1.0,96,0.00,,,0.00,Wunderground v.1.15,2013-04-03 10:25:00,
2013-04-03 04:30:00,35.8,34.8,30.19,ESE,102,1.0,1.0,96,0.00,,,0.00,Wunderground v.1.15,2013-04-03 10:30:00,
2013-04-03 04:35:00,35.8,34.8,30.19,ESE,102,0.0,1.0,96,0.00,,,0.00,Wunderground v.1.15,2013-04-03 10:35:00,
2013-04-03 04:40:00,35.8,34.8,30.19,East,101,0.0,0.0,96,0.00,,,0.00,Wunderground v.1.15,2013-04-03 10:40:00,
2013-04-03 04:45:00,35.8,34.8,30.19,ESE,102,1.0,1.0,96,0.00,,,0.00,Wunderground v.1.15,2013-04-03 10:45:00,
2013-04-03 04:50:00,35.8,34.8,30.19,ESE,102,0.0,0.0,96,0.00,,,0.00,Wunderground v.1.15,2013-04-03 10:50:00,
2013-04-03 04:55:00,35.9,34.9,30.19,ESE,102,0.0,0.0,96,0.00,,,0.00,Wunderground v.1.15,2013-04-03 10:55:00,
2013-04-03 05:00:00,35.8,34.8,30.19,ESE,102,0.0,0.0,96,0.00,,,0.00,Wunderground v.1.15,2013-04-03 11:00:00,
2013-04-03 05:05:00,35.9,34.9,30.19,ESE,102,0.0,0.0,96,0.00,,,0.01,Wunderground v.1.15,2013-04-03 11:05:00,
2013-04-03 05:10:00,35.9,34.9,30.19,ESE,102,0.0,0.0,96,0.00,,,0.01,Wunderground v.1.15,2013-04-03 11:10:00,
2013-04-03 05:15:00,35.9,34.9,30.19,ESE,102,0.0,0.0,96,0.00,,,0.01,Wunderground v.1.15,2013-04-03 11:15:00,
2013-04-03 05:20:00,35.9,34.9,30.19,ESE,102,0.0,0.0,96,0.00,,,0.01,Wunderground v.1.15,2013-04-03 11:20:00,
2013-04-03 05:25:00,35.9,34.9,30.19,ESE,102,0.0,0.0,96,0.00,,,0.01,Wunderground v.1.15,2013-04-03 11:25:00,
2013-04-03 05:30:00,36.0,35.0,30.19,ESE,102,0.0,0.0,96,0.00,,,0.01,Wunderground v.1.15,2013-04-03 11:30:00,
2013-04-03 05:35:00,36.0,35.0,30.19,East,101,0.0,0.0,96,0.00,,,0.01,Wunderground v.1.15,2013-04-03 11:35:00,
2013-04-03 05:40:00,36.0,35.0,30.19,ESE,102,0.0,0.0,96,0.00,,,0.01,Wunderground v.1.15,2013-04-03 11:40:00,
2013-04-03 05:45:00,36.0,35.0,30.19,ESE,102,0.0,0.0,96,0.00,,,0.01,Wunderground v.1.15,2013-04-03 11:45:00,
2013-04-03 05:50:00,36.0,35.0,30.19,ESE,102,0.0,0.0,96,0.00,,,0.01,Wunderground v.1.15,2013-04-03 11:50:00,
2013-04-03 05:56:00,36.1,35.1,30.19,ESE,102,1.0,1.0,96,0.00,,,0.01,Wunderground v.1.15,2013-04-03 11:56:00,
2013-04-03 06:01:00,36.1,35.1,30.20,ESE,102,1.0,1.0,96,0.00,,,0.01,Wunderground v.1.15,2013-04-03 12:01:00,
2013-04-03 06:06:00,36.2,35.2,30.20,ESE,102,0.0,1.0,96,0.00,,,0.01,Wunderground v.1.15,2013-04-03 12:06:00,
2013-04-03 06:11:00,36.2,35.2,30.20,ESE,102,1.0,1.0,96,0.00,,,0.01,Wunderground v.1.15,2013-04-03 12:11:00,
2013-04-03 06:16:00,36.3,35.3,30.19,NNE,29,1.0,2.0,96,0.00,,,0.01,Wunderground v.1.15,2013-04-03 12:16:00,
2013-04-03 06:21:00,36.3,35.3,30.20,NNE,29,0.0,1.0,96,0.00,,,0.01,Wunderground v.1.15,2013-04-03 12:21:00,
2013-04-03 06:26:00,36.3,35.3,30.20,NNE,29,0.0,1.0,96,0.00,,,0.01,Wunderground v.1.15,2013-04-03 12:26:00,
2013-04-03 06:32:00,36.3,35.3,30.20,NNE,29,1.0,1.0,96,0.00,,,0.01,Wunderground v.1.15,2013-04-03 12:32:00,
2013-04-03 06:38:00,36.3,35.3,30.19,NNE,29,0.0,1.0,96,0.00,,,0.01,Wunderground v.1.15,2013-04-03 12:38:00,
2013-04-03 06:43:00,36.3,35.3,30.19,NNE,29,0.0,0.0,96,0.00,,,0.01,Wunderground v.1.15,2013-04-03 12:43:00,
2013-04-03 06:48:00,36.3,35.3,30.20,NNE,29,0.0,0.0,96,0.00,,,0.01,Wunderground v.1.15,2013-04-03 12:48:00,
2013-04-03 06:53:00,36.3,35.3,30.20,NNE,29,0.0,0.0,96,0.00,,,0.01,Wunderground v.1.15,2013-04-03 12:53:00,
2013-04-03 06:58:00,36.3,35.3,30.20,NNE,29,1.0,1.0,96,0.00,,,0.01,Wunderground v.1.15,2013-04-03 12:58:00,
2013-04-03 07:03:00,36.4,35.4,30.20,NNE,29,1.0,1.0,96,0.00,,,0.01,Wunderground v.1.15,2013-04-03 13:03:00,
2013-04-03 07:08:00,36.3,35.3,30.20,NNE,29,0.0,2.0,96,0.00,,,0.01,Wunderground v.1.15,2013-04-03 13:08:00,
2013-04-03 07:13:00,36.3,35.3,30.20,NNE,27,0.0,2.0,96,0.00,,,0.01,Wunderground v.1.15,2013-04-03 13:13:00,
2013-04-03 07:18:00,36.4,35.4,30.20,NNE,29,1.0,2.0,96,0.00,,,0.01,Wunderground v.1.15,2013-04-03 13:18:00,
2013-04-03 07:23:00,36.4,35.4,30.20,NNE,30,0.0,1.0,96,0.00,,,0.01,Wunderground v.1.15,2013-04-03 13:23:00,
2013-04-03 07:28:00,36.4,35.4,30.20,NNE,29,0.0,1.0,96,0.00,,,0.01,Wunderground v.1.15,2013-04-03 13:28:00,
2013-04-03 07:33:00,36.2,35.2,30.20,ENE,58,0.0,2.0,96,0.00,,,0.01,Wunderground v.1.15,2013-04-03 13:33:00,
2013-04-03 07:38:00,36.3,35.3,30.21,ESE,120,1.0,2.0,96,0.00,,,0.01,Wunderground v.1.15,2013-04-03 13:38:00,
2013-04-03 07:44:00,36.3,35.3,30.21,SSW,200,0.0,3.0,96,0.00,,,0.01,Wunderground v.1.15,2013-04-03 13:44:00,
2013-04-03 07:49:00,36.4,35.4,30.21,SSW,200,0.0,3.0,96,0.00,,,0.01,Wunderground v.1.15,2013-04-03 13:49:00,
2013-04-03 07:55:00,36.4,35.4,30.21,SSW,210,1.0,2.0,96,0.00,,,0.01,Wunderground v.1.15,2013-04-03 13:55:00,
2013-04-03 08:00:00,36.5,35.5,30.21,SSW,203,0.0,1.0,96,0.00,,,0.01,Wunderground v.1.15,2013-04-03 14:00:00,
2013-04-03 08:05:00,36.5,35.5,30.21,WSW,257,2.0,3.0,96,0.00,,,0.01,Wunderground v.1.15,2013-04-03 14:05:00,
2013-04-03 08:10:00,36.5,35.5,30.21,WSW,252,2.0,2.0,96,0.00,,,0.01,Wunderground v.1.15,2013-04-03 14:10:00,
2013-04-03 08:15:00,36.3,35.3,30.22,West,277,1.0,4.0,96,0.00,,,0.01,Wunderground v.1.15,2013-04-03 14:15:00,
2013-04-03 08:20:00,36.5,35.5,30.21,South,182,1.0,3.0,96,0.00,,,0.01,Wunderground v.1.15,2013-04-03 14:20:00,
2013-04-03 08:25:00,36.7,35.7,30.21,SSW,205,3.0,4.0,96,0.00,,,0.01,Wunderground v.1.15,2013-04-03 14:25:00,
2013-04-03 08:32:00,36.7,35.4,30.21,SSW,212,3.0,3.0,95,0.00,,,0.01,Wunderground v.1.15,2013-04-03 14:32:00,
2013-04-03 08:37:00,36.9,35.3,30.21,SSW,203,3.0,5.0,94,0.00,,,0.01,Wunderground v.1.15,2013-04-03 14:37:00,
2013-04-03 08:42:00,37.3,35.7,30.21,SSE,161,3.0,5.0,94,0.00,,,0.01,Wunderground v.1.15,2013-04-03 14:42:00,
2013-04-03 08:47:00,37.6,36.0,30.21,West,260,1.0,5.0,94,0.00,,,0.01,Wunderground v.1.15,2013-04-03 14:47:00,
2013-04-03 08:52:00,38.3,36.5,30.21,SSW,205,2.0,4.0,93,0.00,,,0.01,Wunderground v.1.15,2013-04-03 14:52:00,
2013-04-03 08:58:00,39.3,37.4,30.21,WSW,240,3.0,4.0,93,0.00,,,0.01,Wunderground v.1.15,2013-04-03 14:58:00,
2013-04-03 09:03:00,39.6,37.5,30.20,SW,222,4.0,4.0,92,0.00,,,0.01,Wunderground v.1.15,2013-04-03 15:03:00,
2013-04-03 09:08:00,39.8,37.1,30.20,WSW,257,3.0,5.0,90,0.00,,,0.01,Wunderground v.1.15,2013-04-03 15:08:00,
2013-04-03 09:13:00,39.9,36.9,30.20,SW,226,5.0,6.0,89,0.00,,,0.01,Wunderground v.1.15,2013-04-03 15:13:00,
2013-04-03 09:18:00,39.8,36.5,30.19,SSW,204,0.0,6.0,88,0.00,,,0.01,Wunderground v.1.15,2013-04-03 15:18:00,
2013-04-03 09:23:00,40.4,38.0,30.19,WSW,238,2.0,4.0,91,0.00,,,0.01,Wunderground v.1.15,2013-04-03 15:23:00,
2013-04-03 09:29:00,40.5,37.2,30.19,SE,139,2.0,5.0,88,0.00,,,0.01,Wunderground v.1.15,2013-04-03 15:29:00,
2013-04-03 09:34:00,40.6,37.0,30.20,SW,228,2.0,4.0,87,0.00,,,0.01,Wunderground v.1.15,2013-04-03 15:34:00,
2013-04-03 09:39:00,41.0,37.4,30.19,SW,233,1.0,5.0,87,0.00,,,0.01,Wunderground v.1.15,2013-04-03 15:39:00,
2013-04-03 09:44:00,41.7,38.4,30.19,SE,145,0.0,3.0,88,0.00,,,0.01,Wunderground v.1.15,2013-04-03 15:44:00,
2013-04-03 09:49:00,42.4,38.5,30.19,SSE,150,1.0,4.0,86,0.00,,,0.01,Wunderground v.1.15,2013-04-03 15:49:00,
2013-04-03 09:54:00,43.1,39.2,30.19,SW,214,3.0,4.0,86,0.00,,,0.01,Wunderground v.1.15,2013-04-03 15:54:00,
2013-04-03 09:59:00,43.2,39.0,30.19,WNW,294,3.0,5.0,85,0.00,,,0.01,Wunderground v.1.15,2013-04-03 15:59:00,
2013-04-03 10:04:00,42.3,37.8,30.19,WSW,246,2.0,5.0,84,0.00,,,0.01,Wunderground v.1.15,2013-04-03 16:04:00,
2013-04-03 10:10:00,41.8,37.9,30.19,SW,226,3.0,4.0,86,0.00,,,0.01,Wunderground v.1.15,2013-04-03 16:10:00,
2013-04-03 10:15:00,42.0,38.4,30.19,SE,138,2.0,5.0,87,0.00,,,0.01,Wunderground v.1.15,2013-04-03 16:15:00,
2013-04-03 10:20:00,42.6,39.0,30.19,SW,225,3.0,5.0,87,0.00,,,0.01,Wunderground v.1.15,2013-04-03 16:20:00,
2013-04-03 10:25:00,42.8,38.6,30.19,SSE,156,2.0,6.0,85,0.00,,,0.01,Wunderground v.1.15,2013-04-03 16:25:00,
2013-04-03 10:30:00,43.3,39.1,30.19,SSE,160,3.0,3.0,85,0.00,,,0.01,Wunderground v.1.15,2013-04-03 16:30:00,
2013-04-03 10:35:00,44.0,39.8,30.19,ESE,108,2.0,4.0,85,0.00,,,0.01,Wunderground v.1.15,2013-04-03 16:35:00,
2013-04-03 10:40:00,44.7,40.2,30.19,SSE,152,4.0,5.0,84,0.00,,,0.01,Wunderground v.1.15,2013-04-03 16:40:00,
2013-04-03 10:45:00,44.8,39.6,30.18,SE,136,4.0,5.0,82,0.00,,,0.01,Wunderground v.1.15,2013-04-03 16:45:00,
2013-04-03 10:53:00,45.2,39.7,30.18,SSW,205,6.0,8.0,81,0.00,,,0.01,Wunderground v.1.15,2013-04-03 16:53:00,
2013-04-03 10:58:00,44.7,39.2,30.18,SW,231,5.0,8.0,81,0.00,,,0.01,Wunderground v.1.15,2013-04-03 16:58:00,
2013-04-03 11:03:00,44.8,39.6,30.18,WSW,243,8.0,8.0,82,0.00,,,0.01,Wunderground v.1.15,2013-04-03 17:03:00,
2013-04-03 11:09:00,45.1,39.9,30.18,SW,220,2.0,8.0,82,0.00,,,0.01,Wunderground v.1.15,2013-04-03 17:09:00,
2013-04-03 11:14:00,45.6,40.1,30.18,SSE,156,4.0,5.0,81,0.00,,,0.01,Wunderground v.1.15,2013-04-03 17:14:00,
2013-04-03 11:19:00,46.1,40.3,30.18,SW,225,6.0,9.0,80,0.00,,,0.01,Wunderground v.1.15,2013-04-03 17:19:00,
2013-04-03 11:24:00,46.2,40.0,30.18,SSW,203,4.0,7.0,79,0.00,,,0.01,Wunderground v.1.15,2013-04-03 17:24:00,
2013-04-03 11:29:00,46.3,40.5,30.17,SW,219,3.0,7.0,80,0.00,,,0.01,Wunderground v.1.15,2013-04-03 17:29:00,
2013-04-03 11:34:00,46.9,40.7,30.17,WSW,246,4.0,7.0,79,0.00,,,0.01,Wunderground v.1.15,2013-04-03 17:34:00,
2013-04-03 11:39:00,47.3,40.8,30.17,SSW,194,8.0,8.0,78,0.00,,,0.01,Wunderground v.1.15,2013-04-03 17:39:00,
2013-04-03 11:45:00,47.6,41.4,30.17,West,269,5.0,8.0,79,0.00,,,0.01,Wunderground v.1.15,2013-04-03 17:45:00,
2013-04-03 11:50:00,47.7,41.2,30.16,SSW,210,8.0,8.0,78,0.00,,,0.01,Wunderground v.1.15,2013-04-03 17:50:00,
2013-04-03 11:55:00,48.0,41.5,30.17,SW,228,7.0,8.0,78,0.00,,,0.01,Wunderground v.1.15,2013-04-03 17:55:00,
2013-04-03 12:00:00,48.4,41.2,30.16,SW,217,3.0,5.0,76,0.00,,,0.01,Wunderground v.1.15,2013-04-03 18:00:00,
2013-04-03 12:05:00,48.6,41.7,30.16,SSW,200,6.0,8.0,77,0.00,,,0.01,Wunderground v.1.15,2013-04-03 18:05:00,
2013-04-03 12:11:00,48.9,41.3,30.15,SSW,202,2.0,5.0,75,0.00,,,0.01,Wunderground v.1.15,2013-04-03 18:11:00,
2013-04-03 12:16:00,49.1,41.5,30.15,SW,229,7.0,9.0,75,0.00,,,0.01,Wunderground v.1.15,2013-04-03 18:16:00,
2013-04-03 12:21:00,49.3,41.7,30.15,WSW,240,4.0,6.0,75,0.00,,,0.01,Wunderground v.1.15,2013-04-03 18:21:00,
2013-04-03 12:27:00,50.2,42.2,30.14,SW,236,2.0,6.0,74,0.00,,,0.01,Wunderground v.1.15,2013-04-03 18:27:00,
2013-04-03 12:32:00,50.8,42.1,30.14,SSE,168,3.0,7.0,72,0.00,,,0.01,Wunderground v.1.15,2013-04-03 18:32:00,
2013-04-03 12:37:00,51.6,42.5,30.14,SW,219,6.0,7.0,71,0.00,,,0.01,Wunderground v.1.15,2013-04-03 18:37:00,
2013-04-03 12:42:00,51.8,42.7,30.14,SE,140,1.0,7.0,71,0.00,,,0.01,Wunderground v.1.15,2013-04-03 18:42:00,
2013-04-03 12:47:00,52.7,43.6,30.14,SE,141,5.0,7.0,71,0.00,,,0.01,Wunderground v.1.15,2013-04-03 18:47:00,
2013-04-03 12:52:00,52.5,43.4,30.14,South,180,7.0,9.0,71,0.00,,,0.01,Wunderground v.1.15,2013-04-03 18:52:00,
2013-04-03 12:58:00,52.2,42.7,30.14,ESE,120,4.0,11.0,70,0.00,,,0.01,Wunderground v.1.15,2013-04-03 18:58:00,
2013-04-03 13:03:00,52.4,42.1,30.13,SE,139,4.0,7.0,68,0.00,,,0.01,Wunderground v.1.15,2013-04-03 19:03:00,
2013-04-03 13:08:00,52.9,42.6,30.13,SE,145,5.0,7.0,68,0.00,,,0.01,Wunderground v.1.15,2013-04-03 19:08:00,
2013-04-03 13:13:00,53.3,42.6,30.13,South,171,5.0,10.0,67,0.00,,,0.01,Wunderground v.1.15,2013-04-03 19:13:00,
2013-04-03 13:18:00,53.9,42.4,30.13,SSE,166,2.0,10.0,65,0.00,,,0.01,Wunderground v.1.15,2013-04-03 19:18:00,
2013-04-03 13:23:00,54.4,41.6,30.12,SSW,197,5.0,10.0,62,0.00,,,0.01,Wunderground v.1.15,2013-04-03 19:23:00,
2013-04-03 13:28:00,53.9,41.6,30.12,SSW,207,6.0,10.0,63,0.00,,,0.01,Wunderground v.1.15,2013-04-03 19:28:00,
2013-04-03 13:33:00,53.9,41.6,30.12,South,179,5.0,9.0,63,0.00,,,0.01,Wunderground v.1.15,2013-04-03 19:33:00,
2013-04-03 13:38:00,54.3,42.0,30.12,SSE,164,5.0,11.0,63,0.00,,,0.01,Wunderground v.1.15,2013-04-03 19:38:00,
2013-04-03 13:43:00,54.6,40.6,30.12,WSW,243,6.0,9.0,59,0.00,,,0.01,Wunderground v.1.15,2013-04-03 19:43:00,
2013-04-03 13:48:00,54.5,40.5,30.12,SW,217,6.0,10.0,59,0.00,,,0.01,Wunderground v.1.15,2013-04-03 19:48:00,
2013-04-03 13:53:00,54.9,40.8,30.11,SW,233,2.0,7.0,59,0.00,,,0.01,Wunderground v.1.15,2013-04-03 19:53:00,
2013-04-03 13:58:00,55.4,40.9,30.11,SW,214,6.0,9.0,58,0.00,,,0.01,Wunderground v.1.15,2013-04-03 19:58:00,
2013-04-03 14:03:00,55.3,41.2,30.11,SW,235,3.0,10.0,59,0.00,,,0.01,Wunderground v.1.15,2013-04-03 20:03:00,
2013-04-03 14:08:00,55.6,41.0,30.11,WSW,249,7.0,10.0,58,0.00,,,0.01,Wunderground v.1.15,2013-04-03 20:08:00,
2013-04-03 14:13:00,55.9,40.9,30.11,SSW,194,9.0,10.0,57,0.00,,,0.01,Wunderground v.1.15,2013-04-03 20:13:00,
2013-04-03 14:18:00,55.9,40.4,30.10,SSW,207,4.0,10.0,56,0.00,,,0.01,Wunderground v.1.15,2013-04-03 20:18:00,
2013-04-03 14:23:00,56.8,41.7,30.11,ESE,120,1.0,7.0,57,0.00,,,0.01,Wunderground v.1.15,2013-04-03 20:23:00,
2013-04-03 14:28:00,57.1,40.6,30.10,SSW,194,3.0,9.0,54,0.00,,,0.01,Wunderground v.1.15,2013-04-03 20:28:00,
2013-04-03 14:33:00,57.0,40.5,30.10,SE,139,8.0,9.0,54,0.00,,,0.01,Wunderground v.1.15,2013-04-03 20:33:00,
2013-04-03 14:38:00,56.8,40.3,30.10,South,188,4.0,9.0,54,0.00,,,0.01,Wunderground v.1.15,2013-04-03 20:38:00,
2013-04-03 14:43:00,57.2,39.7,30.10,SE,127,3.0,8.0,52,0.00,,,0.01,Wunderground v.1.15,2013-04-03 20:43:00,
2013-04-03 14:48:00,57.6,39.6,30.10,SE,124,7.0,10.0,51,0.00,,,0.01,Wunderground v.1.15,2013-04-03 20:48:00,
2013-04-03 14:53:00,57.6,39.6,30.10,SSE,164,4.0,5.0,51,0.00,,,0.01,Wunderground v.1.15,2013-04-03 20:53:00,
2013-04-03 14:58:00,58.0,40.0,30.10,WSW,243,5.0,10.0,51,0.00,,,0.01,Wunderground v.1.15,2013-04-03 20:58:00,
2013-04-03 15:03:00,58.2,40.1,30.09,SW,232,6.0,6.0,51,0.00,,,0.01,Wunderground v.1.15,2013-04-03 21:03:00,
2013-04-03 15:08:00,58.7,39.6,30.09,SE,142,0.0,9.0,49,0.00,,,0.01,Wunderground v.1.15,2013-04-03 21:08:00,
2013-04-03 15:13:00,58.6,40.0,30.09,SW,214,4.0,9.0,50,0.00,,,0.01,Wunderground v.1.15,2013-04-03 21:13:00,
2013-04-03 15:18:00,59.3,39.6,30.09,SW,222,7.0,9.0,48,0.00,,,0.01,Wunderground v.1.15,2013-04-03 21:18:00,
2013-04-03 15:23:00,59.2,39.5,30.08,SSW,207,8.0,9.0,48,0.00,,,0.01,Wunderground v.1.15,2013-04-03 21:23:00,
2013-04-03 15:28:00,59.2,39.0,30.09,SSW,193,3.0,9.0,47,0.00,,,0.01,Wunderground v.1.15,2013-04-03 21:28:00,
2013-04-03 15:33:00,59.1,38.3,30.08,WSW,246,3.0,8.0,46,0.00,,,0.01,Wunderground v.1.15,2013-04-03 21:33:00,
2013-04-03 15:39:00,59.3,38.5,30.08,South,182,5.0,8.0,46,0.00,,,0.01,Wunderground v.1.15,2013-04-03 21:39:00,
2013-04-03 15:44:00,59.5,38.1,30.08,South,191,3.0,7.0,45,0.00,,,0.01,Wunderground v.1.15,2013-04-03 21:44:00,
2013-04-03 15:49:00,59.7,38.3,30.08,SSW,194,5.0,8.0,45,0.00,,,0.01,Wunderground v.1.15,2013-04-03 21:49:00,
2013-04-03 15:54:00,60.0,37.4,30.08,SW,225,4.0,7.0,43,0.00,,,0.01,Wunderground v.1.15,2013-04-03 21:54:00,
2013-04-03 15:59:00,60.0,39.1,30.07,WSW,256,6.0,8.0,46,0.00,,,0.01,Wunderground v.1.15,2013-04-03 21:59:00,
2013-04-03 16:04:00,59.7,37.7,30.07,SW,219,7.0,10.0,44,0.00,,,0.01,Wunderground v.1.15,2013-04-03 22:04:00,
2013-04-03 16:09:00,59.7,37.2,30.07,WSW,240,8.0,11.0,43,0.00,,,0.01,Wunderground v.1.15,2013-04-03 22:09:00,
2013-04-03 16:14:00,59.9,36.7,30.07,SW,229,8.0,11.0,42,0.00,,,0.01,Wunderground v.1.15,2013-04-03 22:14:00,
2013-04-03 16:19:00,59.9,37.9,30.06,SW,217,6.0,11.0,44,0.00,,,0.01,Wunderground v.1.15,2013-04-03 22:19:00,
2013-04-03 16:24:00,60.2,37.6,30.06,SW,219,5.0,7.0,43,0.00,,,0.01,Wunderground v.1.15,2013-04-03 22:24:00,
2013-04-03 16:29:00,60.5,36.7,30.06,South,184,6.0,7.0,41,0.00,,,0.01,Wunderground v.1.15,2013-04-03 22:29:00,
2013-04-03 16:34:00,60.7,35.6,30.06,WSW,256,3.0,11.0,39,0.00,,,0.01,Wunderground v.1.15,2013-04-03 22:34:00,
2013-04-03 16:39:00,60.8,36.9,30.06,SW,228,5.0,11.0,41,0.00,,,0.01,Wunderground v.1.15,2013-04-03 22:39:00,
2013-04-03 16:44:00,60.5,35.4,30.06,SW,227,2.0,10.0,39,0.00,,,0.01,Wunderground v.1.15,2013-04-03 22:44:00,
2013-04-03 16:49:00,60.6,36.1,30.05,South,191,5.0,10.0,40,0.00,,,0.01,Wunderground v.1.15,2013-04-03 22:49:00,
2013-04-03 16:54:00,61.1,36.6,30.05,SSW,207,4.0,7.0,40,0.00,,,0.01,Wunderground v.1.15,2013-04-03 22:54:00,
2013-04-03 16:59:00,60.8,35.7,30.05,SSE,162,2.0,7.0,39,0.00,,,0.01,Wunderground v.1.15,2013-04-03 22:59:00,
2013-04-03 17:04:00,60.8,35.0,30.05,South,184,1.0,7.0,38,0.00,,,0.01,Wunderground v.1.15,2013-04-03 23:04:00,
2013-04-03 17:09:00,60.6,34.8,30.05,SE,142,7.0,7.0,38,0.00,,,0.01,Wunderground v.1.15,2013-04-03 23:09:00,
2013-04-03 17:14:00,60.5,34.7,30.05,SSE,150,5.0,8.0,38,0.00,,,0.01,Wunderground v.1.15,2013-04-03 23:14:00,
2013-04-03 17:19:00,60.1,35.0,30.05,SSW,197,6.0,8.0,39,0.00,,,0.01,Wunderground v.1.15,2013-04-03 23:19:00,
2013-04-03 17:25:00,59.0,35.3,30.05,SW,236,5.0,8.0,41,0.00,,,0.01,Wunderground v.1.15,2013-04-03 23:25:00,
2013-04-03 17:30:00,58.3,35.9,30.05,SSE,165,2.0,5.0,43,0.00,,,0.01,Wunderground v.1.15,2013-04-03 23:30:00,
2013-04-03 17:35:00,57.8,34.8,30.05,South,191,3.0,5.0,42,0.00,,,0.01,Wunderground v.1.15,2013-04-03 23:35:00,
2013-04-03 17:40:00,57.5,35.7,30.05,SW,228,1.0,2.0,44,0.00,,,0.01,Wunderground v.1.15,2013-04-03 23:40:00,
2013-04-03 17:45:00,57.0,35.9,30.06,SW,236,3.0,5.0,45,0.00,,,0.01,Wunderground v.1.15,2013-04-03 23:45:00,
2013-04-03 17:50:00,56.5,36.0,30.06,WSW,239,2.0,2.0,46,0.00,,,0.01,Wunderground v.1.15,2013-04-03 23:50:00,
2013-04-03 17:55:00,56.2,36.2,30.06,WSW,243,3.0,4.0,47,0.00,,,0.01,Wunderground v.1.15,2013-04-03 23:55:00,
2013-04-03 18:00:00,55.9,35.9,30.05,WSW,252,6.0,6.0,47,0.00,,,0.01,Wunderground v.1.15,2013-04-04 00:00:00,
2013-04-03 18:05:00,55.5,37.1,30.06,WSW,242,5.0,6.0,50,0.00,,,0.01,Wunderground v.1.15,2013-04-04 00:05:00,
2013-04-03 18:10:00,55.8,36.4,30.05,SW,222,3.0,5.0,48,0.00,,,0.01,Wunderground v.1.15,2013-04-04 00:10:00,
2013-04-03 18:15:00,56.3,36.3,30.05,South,186,7.0,7.0,47,0.00,,,0.01,Wunderground v.1.15,2013-04-04 00:15:00,
2013-04-03 18:20:00,56.6,34.3,30.05,SSW,194,1.0,4.0,43,0.00,,,0.01,Wunderground v.1.15,2013-04-04 00:20:00,
2013-04-03 18:25:00,56.6,34.3,30.05,SW,228,0.0,4.0,43,0.00,,,0.01,Wunderground v.1.15,2013-04-04 00:25:00,
2013-04-03 18:30:00,56.4,34.7,30.05,SW,231,4.0,4.0,44,0.00,,,0.01,Wunderground v.1.15,2013-04-04 00:30:00,
2013-04-03 18:35:00,56.0,34.9,30.05,WSW,246,5.0,6.0,45,0.00,,,0.01,Wunderground v.1.15,2013-04-04 00:35:00,
2013-04-03 18:40:00,55.6,36.2,30.06,WSW,253,6.0,7.0,48,0.00,,,0.01,Wunderground v.1.15,2013-04-04 00:40:00,
2013-04-03 18:45:00,55.1,36.3,30.06,SW,222,6.0,9.0,49,0.00,,,0.01,Wunderground v.1.15,2013-04-04 00:45:00,
2013-04-03 18:50:00,54.9,36.1,30.07,WNW,297,5.0,6.0,49,0.00,,,0.01,Wunderground v.1.15,2013-04-04 00:50:00,
2013-04-03 18:55:00,55.2,34.8,30.07,WNW,294,4.0,9.0,46,0.00,,,0.01,Wunderground v.1.15,2013-04-04 00:55:00,
2013-04-03 19:00:00,55.8,30.5,30.07,North,358,2.0,11.0,38,0.00,,,0.01,Wunderground v.1.15,2013-04-04 01:00:00,
2013-04-03 19:05:00,55.8,30.5,30.06,SW,218,1.0,13.0,38,0.00,,,0.01,Wunderground v.1.15,2013-04-04 01:05:00,
2013-04-03 19:10:00,55.9,30.0,30.06,West,276,2.0,5.0,37,0.00,,,0.01,Wunderground v.1.15,2013-04-04 01:10:00,
2013-04-03 19:15:00,55.8,29.9,30.06,NNW,328,3.0,7.0,37,0.00,,,0.01,Wunderground v.1.15,2013-04-04 01:15:00,
2013-04-03 19:20:00,55.5,29.0,30.06,West,278,0.0,3.0,36,0.00,,,0.01,Wunderground v.1.15,2013-04-04 01:20:00,
2013-04-03 19:25:00,54.9,30.4,30.06,NNW,345,0.0,3.0,39,0.00,,,0.01,Wunderground v.1.15,2013-04-04 01:25:00,
2013-04-03 19:30:00,53.8,29.4,30.06,West,273,0.0,1.0,39,0.00,,,0.01,Wunderground v.1.15,2013-04-04 01:30:00,
2013-04-03 19:35:00,53.1,30.6,30.07,SW,225,0.0,2.0,42,0.00,,,0.01,Wunderground v.1.15,2013-04-04 01:35:00,
2013-04-03 19:40:00,52.7,30.2,30.07,SSW,210,1.0,2.0,42,0.00,,,0.01,Wunderground v.1.15,2013-04-04 01:40:00,
2013-04-03 19:45:00,51.7,31.6,30.07,WSW,250,3.0,5.0,46,0.00,,,0.01,Wunderground v.1.15,2013-04-04 01:45:00,
2013-04-03 19:50:00,50.6,31.6,30.07,WSW,253,4.0,5.0,48,0.00,,,0.01,Wunderground v.1.15,2013-04-04 01:50:00,
2013-04-03 19:55:00,50.0,32.6,30.07,West,260,3.0,5.0,51,0.00,,,0.01,Wunderground v.1.15,2013-04-04 01:55:00,
2013-04-03 20:00:00,50.3,32.4,30.07,West,263,3.0,4.0,50,0.00,,,0.01,Wunderground v.1.15,2013-04-04 02:00:00,
2013-04-03 20:05:00,50.1,33.1,30.08,West,270,4.0,7.0,52,0.00,,,0.01,Wunderground v.1.15,2013-04-04 02:05:00,
2013-04-03 20:10:00,50.3,32.8,30.08,West,260,4.0,5.0,51,0.00,,,0.01,Wunderground v.1.15,2013-04-04 02:10:00,
2013-04-03 20:16:00,50.5,32.5,30.08,West,277,0.0,7.0,50,0.00,,,0.01,Wunderground v.1.15,2013-04-04 02:16:00,
2013-04-03 20:21:00,51.1,31.6,30.09,NW,321,4.0,5.0,47,0.00,,,0.01,Wunderground v.1.15,2013-04-04 02:21:00,
2013-04-03 20:26:00,52.6,31.8,30.09,West,266,3.0,6.0,45,0.00,,,0.01,Wunderground v.1.15,2013-04-04 02:26:00,
2013-04-03 20:32:00,52.2,32.0,30.09,West,267,4.0,5.0,46,0.00,,,0.01,Wunderground v.1.15,2013-04-04 02:32:00,
2013-04-03 20:37:00,51.5,31.4,30.10,WNW,299,3.0,6.0,46,0.00,,,0.01,Wunderground v.1.15,2013-04-04 02:37:00,
2013-04-03 20:42:00,52.4,31.7,30.10,WNW,302,2.0,5.0,45,0.00,,,0.01,Wunderground v.1.15,2013-04-04 02:42:00,
2013-04-03 20:47:00,52.8,32.0,30.11,NW,305,6.0,7.0,45,0.00,,,0.01,Wunderground v.1.15,2013-04-04 02:47:00,
2013-04-03 20:52:00,53.9,30.7,30.10,WSW,252,5.0,8.0,41,0.00,,,0.01,Wunderground v.1.15,2013-04-04 02:52:00,
2013-04-03 20:57:00,54.9,29.7,30.10,WNW,289,1.0,8.0,38,0.00,,,0.01,Wunderground v.1.15,2013-04-04 02:57:00,
2013-04-03 21:02:00,54.7,29.6,30.10,NNE,26,8.0,11.0,38,0.00,,,0.01,Wunderground v.1.15,2013-04-04 03:02:00,
2013-04-03 21:07:00,55.6,29.0,30.11,NNE,27,9.0,17.0,36,0.00,,,0.01,Wunderground v.1.15,2013-04-04 03:07:00,
2013-04-03 21:12:00,55.3,30.7,30.11,NNE,33,17.0,22.0,39,0.00,,,0.01,Wunderground v.1.15,2013-04-04 03:12:00,
2013-04-03 21:17:00,55.0,30.5,30.12,NE,38,15.0,22.0,39,0.00,,,0.01,Wunderground v.1.15,2013-04-04 03:17:00,
2013-04-03 21:22:00,54.6,31.3,30.12,North,6,13.0,15.0,41,0.00,,,0.01,Wunderground v.1.15,2013-04-04 03:22:00,
2013-04-03 21:27:00,54.5,31.3,30.12,NNE,22,3.0,17.0,41,0.00,,,0.01,Wunderground v.1.15,2013-04-04 03:27:00,
2013-04-03 21:32:00,54.7,30.8,30.12,NE,42,12.0,16.0,40,0.00,,,0.01,Wunderground v.1.15,2013-04-04 03:32:00,
2013-04-03 21:37:00,54.8,30.3,30.12,NNE,30,10.0,16.0,39,0.00,,,0.01,Wunderground v.1.15,2013-04-04 03:37:00,
2013-04-03 21:42:00,54.8,30.9,30.13,NNE,30,6.0,12.0,40,0.00,,,0.01,Wunderground v.1.15,2013-04-04 03:42:00,
2013-04-03 21:47:00,54.5,31.3,30.13,NE,42,8.0,13.0,41,0.00,,,0.01,Wunderground v.1.15,2013-04-04 03:47:00,
2013-04-03 21:52:00,54.3,31.1,30.13,NNE,30,9.0,12.0,41,0.00,,,0.01,Wunderground v.1.15,2013-04-04 03:52:00,
2013-04-03 21:57:00,53.9,30.7,30.13,NE,45,5.0,12.0,41,0.00,,,0.01,Wunderground v.1.15,2013-04-04 03:57:00,
2013-04-03 22:00:00,53.9,30.7,30.13,NNE,23,4.0,7.0,41,0.00,,,0.01,Wunderground v.1.15,2013-04-04 04:00:00,
2013-04-03 22:05:00,53.6,31.0,30.13,NNW,338,2.0,7.0,42,0.00,,,0.01,Wunderground v.1.15,2013-04-04 04:05:00,
2013-04-03 22:10:00,53.3,31.4,30.13,NW,317,3.0,4.0,43,0.00,,,0.01,Wunderground v.1.15,2013-04-04 04:10:00,
2013-04-03 22:15:00,53.0,31.6,30.13,NW,318,2.0,6.0,44,0.00,,,0.01,Wunderground v.1.15,2013-04-04 04:15:00,
2013-04-03 22:20:00,52.7,31.4,30.13,WNW,294,0.0,2.0,44,0.00,,,0.01,Wunderground v.1.15,2013-04-04 04:20:00,
2013-04-03 22:25:00,52.4,31.7,30.13,NW,306,2.0,3.0,45,0.00,,,0.01,Wunderground v.1.15,2013-04-04 04:25:00,
2013-04-03 22:30:00,52.2,32.0,30.13,WNW,291,3.0,4.0,46,0.00,,,0.01,Wunderground v.1.15,2013-04-04 04:30:00,
2013-04-03 22:35:00,51.8,31.7,30.12,WNW,287,3.0,4.0,46,0.00,,,0.01,Wunderground v.1.15,2013-04-04 04:35:00,
2013-04-03 22:40:00,52.0,31.3,30.12,WNW,283,3.0,4.0,45,0.00,,,0.01,Wunderground v.1.15,2013-04-04 04:40:00,
2013-04-03 22:45:00,52.0,31.3,30.12,WNW,290,4.0,5.0,45,0.00,,,0.01,Wunderground v.1.15,2013-04-04 04:45:00,
2013-04-03 22:50:00,51.7,32.1,30.12,WNW,297,6.0,6.0,47,0.00,,,0.01,Wunderground v.1.15,2013-04-04 04:50:00,
2013-04-03 22:55:00,51.2,32.7,30.12,WSW,250,3.0,6.0,49,0.00,,,0.01,Wunderground v.1.15,2013-04-04 04:55:00,
2013-04-03 23:00:00,50.2,32.3,30.11,WSW,253,3.0,4.0,50,0.00,,,0.01,Wunderground v.1.15,2013-04-04 05:00:00,
2013-04-03 23:05:00,50.0,32.6,30.11,West,267,2.0,4.0,51,0.00,,,0.01,Wunderground v.1.15,2013-04-04 05:05:00,
2013-04-03 23:10:00,51.2,31.6,30.11,West,281,4.0,9.0,47,0.00,,,0.01,Wunderground v.1.15,2013-04-04 05:10:00,
2013-04-03 23:15:00,51.2,33.2,30.11,ENE,74,1.0,9.0,50,0.00,,,0.01,Wunderground v.1.15,2013-04-04 05:15:00,
2013-04-03 23:20:00,50.2,33.2,30.11,East,86,0.0,2.0,52,0.00,,,0.01,Wunderground v.1.15,2013-04-04 05:20:00,
2013-04-03 23:25:00,49.7,33.2,30.11,WSW,249,3.0,3.0,53,0.00,,,0.01,Wunderground v.1.15,2013-04-04 05:25:00,
2013-04-03 23:30:00,49.6,32.7,30.11,SSW,201,2.0,2.0,52,0.00,,,0.01,Wunderground v.1.15,2013-04-04 05:30:00,
2013-04-03 23:35:00,49.2,33.3,30.11,WSW,245,0.0,2.0,54,0.00,,,0.01,Wunderground v.1.15,2013-04-04 05:35:00,
2013-04-03 23:40:00,49.2,32.8,30.11,West,259,0.0,1.0,53,0.00,,,0.01,Wunderground v.1.15,2013-04-04 05:40:00,
2013-04-03 23:45:00,48.8,33.3,30.10,WSW,257,5.0,5.0,55,0.00,,,0.01,Wunderground v.1.15,2013-04-04 05:45:00,
2013-04-03 23:50:00,48.1,33.6,30.10,South,191,4.0,4.0,57,0.00,,,0.01,Wunderground v.1.15,2013-04-04 05:50:00,
2013-04-03 23:55:00,48.7,33.7,30.10,West,259,4.0,9.0,56,0.00,,,0.01,Wunderground v.1.15,2013-04-04 05:55:00,